Regional Weather Roundup
Issued by NWS

Home | Current Version | Previous Version | Text Only | Print | Product List | Glossary Off
Versions: 1 2 3 4 5 6 7 8 9 10 11 12 13 14 15 16 17 18 19 20 21 22 23 24 25 26 27 28 29 30 31 32 33 34 35 36 37 38 39 40 41 42 43 44 45 46 47 48 49 50

000
ASUS43 KMPX 171601
RWRMN
WEATHER ROUNDUP FOR MINNESOTA
NATIONAL WEATHER SERVICE TWIN CITIES/CHANHASSEN MN
1000 AM CST WED DEC 17 2014


NOTE: "FAIR" INDICATES FEW OR NO CLOUDS BELOW 12,000 FEET WITH NO
SIGNIFICANT WEATHER AND/OR OBSTRUCTIONS TO VISIBILITY. N/A MEANS
CURRENT SKY AND/OR WEATHER CONDITIONS ARE NOT AVAILABLE.

MNZ060>063-068>070-171700-
   Twin Cities Metro

CITY           SKY/WX    TMP DP  RH WIND       PRES   REMARKS
TWIN CITIES    MOSUNNY   13   7  77 W9        30.33R WCI   1
ST PAUL        PTSUNNY   14   9  80 W9        30.34S WCI   2
CRYSTAL        CLOUDY    13   7  77 W7        30.32S HAZE    WCI   3
BLAINE         LGT SNOW  14  10  85 W9        30.31  WCI   2
LAKEVILLE      SUNNY     10   7  85 NW9       30.32S WCI  -2
EDEN PRAIRIE   CLOUDY    12   7  80 NW8       30.32S WCI   0
SOUTH ST PAUL  MOSUNNY   15  10  78 NW6       30.33S WCI   6
LAKE ELMO      LGT SNOW  14  10  85 W6        30.32R WCI   5
$$
MNZ001>005-007-008-013>017-022>024-027-028-171700-
   Northwest Minnesota

CITY           SKY/WX    TMP DP  RH WIND       PRES   REMARKS
BEMIDJI        FLURRIES  11   7  84 N6        30.29R WCI   2
HALLOCK        MOSUNNY    3   1  92 N3        30.38S
ROSEAU         MOSUNNY    3  -2  78 CALM      30.35S
WARROAD        MOSUNNY    7   1  78 N3        30.35R
THIEF RVR FALL MOSUNNY    9   5  85 CALM      30.34R
CROOKSTON      MOSUNNY    5   1  85 N5        30.39R WCI  -4
FOSSTON        CLOUDY     5   1  85 CALM      30.32R
DETROIT LAKES  FLURRIES   7   5  92 NW5       30.33R WCI  -2
MOORHEAD       PTSUNNY    7   7 100 NW5       30.39R WCI  -2
PARK RAPIDS    MOSUNNY   11   6  81 N6        30.28R WCI   1
MAHNOMEN       FAIR       4   1  87 CALM      30.32R
$$
MNZ006-009>011-018-025>026-171700-
   North Central Minnesota

CITY           SKY/WX    TMP DP  RH WIND       PRES   REMARKS
BAUDETTE       CLOUDY    12   6  77 N5        30.33R WCI   4
FLAG ISLAND    MOSUNNY    7   3  85 N6        30.35R WCI  -3
INTL FALLS     MOSUNNY   14   6  70 NE6       30.32R WCI   5
WASKISH        MOSUNNY   16  10  79 CALM      30.32R
BIG FORK       SUNNY     14   9  79 N6        30.29R WCI   5
LONGVILLE      FLURRIES  12   9  85 NE5       30.28R WCI   4
GRAND RAPIDS   PTSUNNY   10   7  85 N13       30.26R WCI  -5
CRANE LAKE     MOSUNNY   10   7  85 N6        30.32R WCI   1
ORR            MOSUNNY   12   7  79 N5        30.26R WCI   4
COOK           SUNNY     12   9  85 N5        30.27R WCI   4
WALKER         PTSUNNY   10   6  84 N5        30.27S WCI   2
$$
MNZ012-019>021-037-171700-
   Northeast Minnesota

CITY           SKY/WX    TMP DP  RH WIND       PRES   REMARKS
DULUTH         MOSUNNY   13   6  74 N10       30.22R WCI   0
ELY            MOSUNNY   12   9  85 NE8       30.25R WCI   1
HIBBING        MOSUNNY   14   6  70 N14       30.25R WCI  -1
EVELETH        FLURRIES  14   9  79 N5        30.26R WCI   6
DULUTH HARBOR  MOSUNNY   18  12  79 N15       30.29R WCI   3
TWO HARBORS    CLOUDY    18  10  73 N7        30.22R WCI   8
SILVER BAY     CLOUDY    18  10  73 N6        30.22R WCI   9
GRAND MARAIS     N/A     19  10  68 N14G23    30.24R WCI   6
G MARAIS ARPRT LGT SNOW  12   5  73 N12G18    30.17R WCI  -2
$$
MNZ029>031-032-039>041-046>048-054>057-064-171700-
   West Central Minnesota

CITY           SKY/WX    TMP DP  RH WIND       PRES   REMARKS
FERGUS FALLS   MOSUNNY    3   0  85 N7        30.39S WCI  -9
WHEATON        MOSUNNY    7   3  85 NW6       30.39S WCI  -3
MORRIS         MOSUNNY    9   3  78 NW8       30.35R WCI  -4
ALEXANDRIA     MOSUNNY    6   3  87 NW8       30.31R WCI  -7
ELBOW LAKE     FAIR       5   2  89 NW6       30.34S WCI  -6
WADENA         SUNNY      7   3  85 NW5       30.30R WCI  -2
GLENWOOD       MOSUNNY    7   5  92 NW6       30.32R WCI  -3
APPLETON       MOSUNNY   10   7  85 NW3       30.37R
BENSON         MOSUNNY    9   5  85 N6        30.35R WCI  -1
ORTONVILLE     MOSUNNY    9   3  78 NW7       30.36R WCI  -3
MADISON        SUNNY     12   9  85 NW3       30.37R
WILLMAR        PTSUNNY   10   5  79 NW10      30.34S WCI  -3
$$
MNZ033>034-036-042>043-049>051-058-059-171700-
   Central Minnesota

CITY           SKY/WX    TMP DP  RH WIND       PRES   REMARKS
ST CLOUD       MOSUNNY   13   7  77 W9        30.32R WCI   1
SAUK CENTRE    FAIR       7   3  84 NW7       30.32S WCI  -4
PAYNESVILLE    MOSUNNY    6   4  90 W7        30.33S WCI  -5
AITKIN         FLURRIES  16   9  73 N7        30.26S WCI   6
PINE RIVER     FLURRIES  12   9  85 N9        30.30R WCI   0
BRAINERD       CLOUDY    12   9  87 CALM      30.29R FOG
STAPLES        MOSUNNY    9   7  92 NW6       30.29R WCI  -1
LONG PRAIRIE   FAIR       9   5  85 NW6       30.31R WCI  -1
LITTLE FALLS   PTSUNNY   10   7  85 W5        30.32R WCI   2
LITCHFIELD     MOSUNNY   10   9  92 NW8       30.33S WCI  -1
BUFFALO        SUNNY     12   7  81 W7        30.33F WCI   1
MAPLE LAKE     SUNNY     12   9  87 W7        30.33S WCI   2
$$
MNZ037-044-045-052-053-171700-
   East Central Minnesota

CITY           SKY/WX    TMP DP  RH WIND       PRES   REMARKS
PRINCETON      SUNNY     14   9  79 CALM      30.31R
MORA           MOSUNNY   14   7  73 N7        30.31R WCI   4
CAMBRIDGE      FLURRIES  16   7  67 W7        30.30R WCI   6
RUSH CITY      MOSUNNY   15   9  76 NW5       30.30R WCI   7
MOOSE LAKE     FLURRIES  14   9  79 NW6       30.26R WCI   5
HINCKLEY       FAIR      16  10  79 N7        30.28S WCI   6
CLOQUET        MOSUNNY   12   7  79 N10       30.24R WCI  -1
MCGREGOR       MOSUNNY   14  10  85 N9        30.27S WCI   2
$$
MNZ071>073-080-081-089-090-097-098-171700-
   Southwest Minnesota

CITY           SKY/WX    TMP DP  RH WIND       PRES   REMARKS
MONTEVIDEO     MOSUNNY   12   9  85 N6        30.37R WCI   3
GRANITE FALLS  MOSUNNY    9   6  87 NW9       30.38R WCI  -5
CANBY          MOSUNNY   10   7  87 NW8       30.35F WCI  -2
MARSHALL       MOSUNNY    9   3  78 NW6       30.34S WCI  -1
REDWOOD FALLS  SUNNY     10   6  84 NW6       30.35R WCI   0
OLIVIA         FLURRIES  12   9  85 NW8       30.34R WCI   1
WINDOM         FLURRIES  10   9  92 NW12      30.32R WCI  -4
WORTHINGTON    MOSUNNY   10   7  85 N8        30.31S WCI  -1
JACKSON        MOSUNNY   14  10  85 NW8       30.32R WCI   3
TRACY          MOSUNNY   11   8  85 NW5       30.34R WCI   3
SLAYTON        MOSUNNY   11   8  89 CALM      30.32R
$$
MNZ065>067-074>077-082>085-091>093-171700-
   South Central Minnesota

CITY           SKY/WX    TMP DP  RH WIND       PRES   REMARKS
MANKATO        SUNNY     10   5  79 NW12      30.33R WCI  -4
NEW ULM        FLURRIES  10   9  92 NW8       30.35R WCI  -1
ST JAMES       LGT SNOW  12   9  85 NW9       30.35R WCI   0
FAIRMONT       MOSUNNY   12   7  79 N8        30.33R WCI   1
GLENCOE        SUNNY     14  10  85 NW8       30.33R WCI   3
FARIBAULT      LGT SNOW  12   9  85 NW10      30.32S WCI  -1
OWATONNA       LGT SNOW  12   9  85 NW9       30.31R WCI   0
WASECA         LGT SNOW  12   9  85 NW8       30.34R WCI   1
ALBERT LEA     MOSUNNY   12  10  92 NW5       30.30S WCI   4
$$
MNZ078>079-086>088-094>096-171700-
   Southeast Minnesota

CITY           SKY/WX    TMP DP  RH WIND       PRES   REMARKS
ROCHESTER      MIX PCPN  13   9  84 NW12      30.28R WCI  -1
RED WING       LGT SNOW  16   9  73 W6        30.32R WCI   7
STANTON        LGT SNOW  13   8  80 W9        30.32R WCI   1
DODGE CENTER   LGT SNOW  12  10  92 NW9       30.28R WCI   0
WINONA         MOSUNNY   19  12  73 NW12      30.32R WCI   7
AUSTIN         LGT SNOW  12   9  85 NW8       30.30R WCI   1
PRESTON        LGT SNOW  13   9  84 W9        30.28S WCI   1
$$
ABBREVIATIONS USED IN REMARKS
   TC - TEMPERATURES IN CELSIUS
  WCI - WIND CHILL INDEX
   HX - HEAT INDEX
  VSB - VISIBILITY
$$


USA.gov is the U.S. government's official web portal to all federal, state and local government web resources and services.